Location: *
(44.9667°N, 10.7833°E)
Time: 07:05:42
(UTC+00:00)

Daily predictions for brighter satellites

Satellite Brightness Start Highest point End
(mag) Time Altitude Azimuth Time Altitude Azimuth Time Altitude Azimuth
Cosmos 2074 Rocket 4.0 16:00:48 10° N 16:07:03 73° E 16:13:17 10° SSE
CREW DRAGON DEMO-1 DEB 4.2 16:10:44 10° NW 16:13:14 24° N 16:15:45 10° ENE
Cosmos 1939 Rocket 4.3 16:13:30 10° ESE 16:15:51 16° ENE 16:18:14 10° NNE
Cosmos 1869 4.0 16:12:35 10° SSW 16:16:34 61° W 16:20:39 10° N
USA 281 4.2 16:12:08 10° E 16:17:16 25° NE 16:22:24 10° N
Cosmos 2369 Rocket 4.1 16:16:55 10° NNE 16:17:53 10° NE 16:18:53 10° NE
Cosmos 2184 Rocket 4.1 16:13:03 10° N 16:19:28 86° E 16:25:50 10° S
CORIOLIS 4.4 16:14:41 10° SE 16:19:51 49° ENE 16:25:05 10° N
Cosmos 1814 Rocket 4.3 16:16:58 10° SSW 16:22:18 73° WNW 16:27:38 10° NNE
Cosmos 1980 3.9 16:18:01 10° S 16:23:31 53° ESE 16:29:02 10° NE
Cosmos 2221 2.8 16:23:03 10° SSW 16:27:23 75° W 16:31:44 10° N
H-2A R/B 3.9 16:26:21 10° S 16:30:01 47° W 16:33:46 10° NNW
Cosmos 1500 Rocket 3.6 16:29:28 10° N 16:33:52 85° W 16:38:16 10° S
Abrixas rocket 2.1 16:31:14 10° WNW 16:33:59 63° SSW 16:36:43 10° ESE
YAOGAN 6 2.8 16:31:11 10° S 16:34:50 75° WSW 16:38:29 10° NNW
CZ-4C R/B 4.0 16:35:38 10° N 16:39:09 51° WNW 16:42:40 10° SSW
Cosmos 405 Rocket 3.0 16:38:12 10° NNW 16:42:06 73° W 16:46:02 10° S
ADEOS Rocket 4.1 16:36:39 10° N 16:44:11 65° WNW 16:51:50 10° SSW
Cosmos 2297 4.4 16:39:27 10° N 16:44:30 31° NE 16:49:31 10° ESE
YAOGAN 1 4.0 16:44:13 15° E 16:45:13 17° ENE 16:47:57 10° NNE
Cosmos 389 Rocket 2.9 16:43:05 10° SSE 16:46:18 38° E 16:49:22 11° NNE
Cosmos 1943 Rocket 3.4 16:43:29 10° N 16:47:39 21° NE 16:50:05 16° E
H-2A R/B 3.8 16:45:54 10° S 16:50:05 45° W 16:54:10 10° NNW
Cosmos 44 4.4 16:46:16 10° NNW 16:50:51 29° NE 16:54:10 16° E
Cosmos 1933 4.2 16:47:27 10° SSE 16:50:56 29° E 16:53:49 14° NE
BREEZE-M DEB (TANK) 2.1 16:49:57 10° W 16:52:04 47° NNW 16:53:03 25° NE
Cosmos 1689 Rocket 4.1 16:53:23 14° ESE 16:53:23 14° ESE 16:54:17 10° SE
SL-16 R/B 3.0 16:48:27 10° SSE 16:53:20 31° ESE 16:56:52 17° NE
Cosmos 1867 4.1 16:48:29 10° S 16:53:32 41° ESE 16:57:16 17° NE
USA 215 3.3 16:47:51 13° NE 16:53:44 69° SE 17:00:15 10° SW
CZ-2C R/B 3.8 16:51:04 10° ESE 16:55:18 27° ENE 16:59:23 10° N
COSMO-SKYMED 1 3.2 16:52:14 10° NNE 16:56:16 36° E 17:00:15 10° SSE
Okean-O 3.6 16:52:58 10° ESE 16:56:34 25° ENE 17:00:12 10° N
Cosmos 2218 Rocket 4.3 16:53:12 10° N 16:58:59 40° ENE 17:04:43 10° SE
Cosmos 1818 3.8 16:55:43 10° NW 17:01:12 74° WSW 17:06:37 10° SSE
Cosmos 1606 2.6 17:00:00 10° S 17:03:52 74° E 17:07:47 10° NNE
Sich 1 2.9 17:00:57 10° N 17:05:23 80° E 17:09:44 10° SSE
BREEZE-M TANK 4.0 17:01:34 10° WNW 17:06:47 37° SW 17:09:51 10° SE
Okean O Rocket 2.3 17:03:29 10° S 17:07:45 55° W 17:12:03 10° NNW
Helios 1A Rocket 3.6 17:07:32 22° ESE 17:09:11 30° ENE 17:12:43 10° N
Cosmos 2333 Rocket 4.0 17:04:33 10° WSW 17:09:19 27° NW 17:14:05 10° N
Cosmos 2366 rocket 4.1 17:04:09 10° N 17:10:08 47° ENE 17:16:02 10° SSE
ISS -3.4 17:09:02 10° WSW 17:12:21 58° NNW 17:13:33 34° NE
Cosmos 1125 Rocket 3.9 17:09:14 10° NNW 17:14:23 64° WSW 17:19:31 10° S
COSMOS 2428 4.4 17:09:42 10° WSW 17:14:43 31° NW 17:19:47 10° N
Cosmos 1356 3.3 17:11:41 10° N 17:15:07 87° ENE 17:18:32 10° S
Feng Yun 1-1 Rocket 4.2 17:09:42 10° SSE 17:15:31 79° ENE 17:21:14 10° NNW
Cosmos 1805 Rocket 4.2 17:11:52 10° NNW 17:16:16 59° W 17:20:37 10° S
Meteor 1-20 Rocket 4.3 17:10:49 10° N 17:16:37 60° ENE 17:22:23 10° SSE
SAR-Lupe-4 3.6 17:15:58 30° NE 17:17:30 54° E 17:21:01 10° S
CZ-4B R/B 1.6 17:17:16 15° N 17:19:44 63° WNW 17:22:47 10° SSW
SKYMED 3 4.5 17:16:26 12° NNE 17:20:24 65° ESE 17:24:42 10° S
Cosmos 1151 Rocket 3.1 17:16:57 10° S 17:21:07 51° E 17:23:24 24° NNE
Cosmos 2278 Rocket 3.5 17:16:14 10° NW 17:21:34 43° WSW 17:26:53 10° S
Cosmos 1666 Rocket 3.4 17:18:07 10° N 17:22:32 77° E 17:26:57 10° SSE
IRS-1C Rocket 4.0 17:19:42 10° SSE 17:24:57 75° ENE 17:30:15 10° N
USA 267 3.2 17:21:44 20° ESE 17:26:23 67° NNE 17:32:53 10° NW
Cosmos 1328 Rocket 3.6 17:22:50 10° S 17:27:01 52° E 17:28:37 33° NE
Lacrosse 5 rocket 2.0 17:25:11 10° SSW 17:28:08 31° SE 17:28:08 31° SE
ERS-2 2.8 17:29:45 12° N 17:33:02 55° WNW 17:36:36 10° SSW
FALCON 9 R/B 3.3 17:33:08 10° S 17:33:17 10° S 17:33:17 10° S
Cosmos 2341 Rocket 4.2 17:28:22 10° NNW 17:34:37 72° W 17:40:54 10° S
SAR-Lupe-1 3.9 17:33:32 42° NNE 17:34:40 86° ESE 17:38:15 10° SSW
CZ-2D R/B 3.1 17:30:53 10° SSE 17:34:41 82° ENE 17:38:31 10° N
EO 1 Delta rocket 4.3 17:29:28 10° NNE 17:34:44 68° E 17:41:20 10° S
SL-24 R/B 3.7 17:32:45 28° NNE 17:34:51 76° ESE 17:38:36 10° S
Meteor 1-25 Rocket 4.1 17:29:48 10° N 17:35:26 81° E 17:41:06 10° SSE
CSL-04 Debris 4.5 17:36:09 36° E 17:37:26 42° ENE 17:42:36 10° N
CZ-4 R/B 1.4 17:38:23 55° NE 17:38:23 55° NE 17:41:53 10° N
Meteor 1-4 Rocket 4.5 17:34:51 10° SSE 17:35:58 18° SSE 17:35:58 18° SSE
Cosmos 2219 Rocket 4.5 17:36:43 10° W 17:40:38 19° NW 17:44:32 10° N
CZ-3B R/B 3.5 17:41:14 10° SSW 17:42:22 16° S 17:42:22 16° S
BREEZE-M DEB (TANK) 3.8 17:41:58 10° WSW 17:43:13 27° W 17:43:13 27° W
SKYMED 2 3.8 17:40:45 14° N 17:44:26 71° WNW 17:48:45 10° SSW
USA 81 4.1 17:40:55 10° N 17:46:13 78° W 17:51:29 10° S
SL-24 DEB 4.1 17:43:09 10° N 17:47:57 78° E 17:52:40 10° S
CREW DRAGON DEMO-1 DEB 4.5 17:46:05 10° WNW 17:47:43 29° NW 17:47:43 29° NW
Cosmos 2237 Rocket 3.4 17:44:15 10° WSW 17:49:28 38° NW 17:54:25 11° NNE
Cosmos 2285 Rocket 3.9 17:43:30 10° NNW 17:49:57 84° ENE 17:56:18 10° SSE
Cosmos 1939 Rocket 3.9 17:46:44 10° S 17:50:26 44° W 17:54:11 10° NNW
Cosmos 1633 Rocket 3.5 17:48:53 10° NNW 17:53:13 61° W 17:57:30 10° S
H-2A R/B 2.0 17:52:26 50° ESE 17:53:22 59° ENE 17:58:30 10° N
Cosmos 773 Rocket 3.8 17:53:00 10° SSW 17:58:14 78° ESE 17:59:15 58° NE
SL-8 Rocket 4.4 17:52:37 10° NNW 17:58:46 62° W 18:04:55 10° S
USA 281 3.2 17:54:34 10° SSE 18:01:07 79° WSW 18:07:44 10° NNW
CSL-04 Rocket 3.7 18:01:44 57° NE 18:01:44 57° NE 18:06:26 10° N
Cosmos 2369 Rocket 2.9 17:58:03 10° NNW 18:02:10 38° NNE 18:02:10 38° NNE
MOS 1 Rocket 3.5 18:03:47 39° NNE 18:05:54 84° ESE 18:11:21 10° SSW
Cosmos 1821 Rocket 4.1 18:06:28 10° N 18:11:29 53° NE 18:11:29 53° NE
Cosmos 1241 Rocket 4.5 18:08:48 10° NW 18:15:27 90° ENE 18:17:23 50° SSE
YAOGAN 1 3.3 18:21:24 51° WNW 18:21:24 51° WNW 18:25:10 10° NNW
Cosmos 1943 Rocket 2.3 18:26:26 10° NNW 18:31:41 71° W 18:31:41 71° W
Cosmos 44 4.0 18:27:13 10° NW 18:32:25 57° WSW 18:32:40 56° SW
Okean-O 4.1 18:28:50 10° SSW 18:32:53 35° W 18:36:58 10° NNW
CZ-2C R/B 4.2 18:30:09 10° SSW 18:35:01 41° W 18:39:42 10° NNW
ARGOS 4.3 18:38:30 33° NNW 18:38:30 33° NNW 18:41:26 10° NNW
USA 215 3.8 18:35:13 42° N 18:36:35 48° NNW 18:42:47 10° W
SL-16 R/B 3.2 18:31:54 10° SW 18:37:17 43° WNW 18:38:47 36° NNW
USA 267 4.1 19:09:06 41° SW 19:09:38 41° SW 19:15:45 10° WNW
H-2A R/B 4.4 19:33:04 20° W 19:33:08 20° W 19:36:56 10° NW
